Time,TemperatureF,DewpointF,PressureIn,WindDirection,WindDirectionDegrees,WindSpeedMPH,WindSpeedGustMPH,Humidity,HourlyPrecipIn,Conditions,Clouds,dailyrainin,SoftwareType,DateUTC
2013-06-27 00:01:00,58.5,57.0,29.88,SE,135,2.7,2.7,95,0.00,,---,0.00,VWS V14.01,2013-06-26 14:01:00,
2013-06-27 00:06:00,58.5,57.0,29.88,ENE,68,2.9,2.9,95,0.00,,---,0.00,VWS V14.01,2013-06-26 14:06:00,
2013-06-27 00:11:00,58.3,57.2,29.88,SE,135,3.4,3.4,96,0.00,,---,0.00,VWS V14.01,2013-06-26 14:11:00,
2013-06-27 00:16:00,58.3,57.2,29.88,SSE,158,4.9,4.9,96,0.00,,---,0.00,VWS V14.01,2013-06-26 14:16:00,
2013-06-27 00:21:00,58.3,57.2,29.88,SE,135,1.3,1.3,96,0.00,,---,0.00,VWS V14.01,2013-06-26 14:21:00,
2013-06-27 00:26:00,58.1,57.0,29.88,SE,135,2.2,2.2,96,0.00,,---,0.00,VWS V14.01,2013-06-26 14:26:00,
2013-06-27 00:31:00,58.1,57.0,29.88,South,180,1.6,1.6,96,0.00,,---,0.00,VWS V14.01,2013-06-26 14:31:00,
2013-06-27 00:36:00,58.1,57.0,29.88,SSE,158,1.1,2.2,96,0.00,,---,0.00,VWS V14.01,2013-06-26 14:36:00,
2013-06-27 00:41:00,58.1,57.0,29.91,South,180,0.0,2.7,96,0.00,,---,0.00,VWS V14.01,2013-06-26 14:41:00,
2013-06-27 00:46:00,58.1,57.0,29.91,WSW,248,3.6,3.6,96,0.00,,---,0.00,VWS V14.01,2013-06-26 14:46:00,
2013-06-27 00:51:00,58.3,56.9,29.91,South,180,2.7,2.7,95,0.00,,---,0.00,VWS V14.01,2013-06-26 14:51:00,
2013-06-27 00:56:00,58.3,56.9,29.91,SSW,202,0.9,0.9,95,0.00,,---,0.00,VWS V14.01,2013-06-26 14:56:00,
2013-06-27 01:01:00,58.3,56.9,29.91,South,180,2.2,2.5,95,0.00,,---,0.00,VWS V14.01,2013-06-26 15:01:00,
2013-06-27 01:06:00,58.3,56.9,29.91,SE,135,2.0,2.0,95,0.00,,---,0.00,VWS V14.01,2013-06-26 15:06:00,
2013-06-27 01:11:00,58.3,56.9,29.91,SSE,158,1.1,1.1,95,0.00,,---,0.00,VWS V14.01,2013-06-26 15:11:00,
2013-06-27 01:16:00,58.1,56.7,29.88,SSE,158,1.1,1.1,95,0.00,,---,0.00,VWS V14.01,2013-06-26 15:16:00,
2013-06-27 01:21:00,58.1,56.4,29.88,ESE,112,1.6,1.6,94,0.00,,---,0.00,VWS V14.01,2013-06-26 15:21:00,
2013-06-27 01:26:00,57.9,56.2,29.91,SSE,158,2.0,2.0,94,0.00,,---,0.00,VWS V14.01,2013-06-26 15:26:00,
2013-06-27 01:31:00,57.9,56.2,29.91,SSE,158,1.6,1.6,94,0.00,,---,0.00,VWS V14.01,2013-06-26 15:31:00,
2013-06-27 01:36:00,57.9,56.2,29.91,SSW,202,1.3,1.3,94,0.00,,---,0.00,VWS V14.01,2013-06-26 15:36:00,
2013-06-27 01:41:00,57.9,56.2,29.91,East,90,0.0,0.0,94,0.00,,---,0.00,VWS V14.01,2013-06-26 15:41:00,
2013-06-27 01:46:00,57.9,56.2,29.91,NW,315,3.8,3.8,94,0.00,,---,0.00,VWS V14.01,2013-06-26 15:46:00,
2013-06-27 01:51:00,57.9,56.2,29.91,North,0,0.0,1.3,94,0.00,,---,0.00,VWS V14.01,2013-06-26 15:51:00,
2013-06-27 01:56:00,57.9,56.2,29.91,West,270,3.4,3.4,94,0.04,,---,0.04,VWS V14.01,2013-06-26 15:56:00,
2013-06-27 02:01:00,57.9,56.2,29.91,West,270,2.7,2.7,94,0.04,,---,0.04,VWS V14.01,2013-06-26 16:01:00,
2013-06-27 02:06:00,57.9,56.2,29.91,East,90,0.0,0.0,94,0.04,,---,0.04,VWS V14.01,2013-06-26 16:06:00,
2013-06-27 02:11:00,57.9,56.2,29.91,WNW,292,0.0,0.0,94,0.04,,---,0.04,VWS V14.01,2013-06-26 16:11:00,
2013-06-27 02:16:00,57.9,56.2,29.88,West,270,2.7,2.7,94,0.04,,---,0.04,VWS V14.01,2013-06-26 16:16:00,
2013-06-27 02:21:00,57.7,56.0,29.88,SW,225,3.1,3.1,94,0.04,,---,0.04,VWS V14.01,2013-06-26 16:21:00,
2013-06-27 02:26:00,57.7,56.0,29.88,SW,225,1.3,2.2,94,0.04,,---,0.04,VWS V14.01,2013-06-26 16:26:00,
2013-06-27 02:31:00,57.7,56.0,29.88,SW,225,2.0,2.0,94,0.04,,---,0.04,VWS V14.01,2013-06-26 16:31:00,
2013-06-27 02:36:00,57.6,55.8,29.88,SW,225,0.9,0.9,94,0.04,,---,0.04,VWS V14.01,2013-06-26 16:36:00,
2013-06-27 02:41:00,57.6,55.8,29.88,SW,225,2.0,2.5,94,0.04,,---,0.04,VWS V14.01,2013-06-26 16:41:00,
2013-06-27 02:46:00,57.6,55.8,29.88,SSE,158,0.0,0.9,94,0.04,,---,0.04,VWS V14.01,2013-06-26 16:46:00,
2013-06-27 02:51:00,57.6,55.8,29.88,SW,225,2.2,2.2,94,0.04,,---,0.04,VWS V14.01,2013-06-26 16:51:00,
2013-06-27 02:56:00,57.6,55.8,29.88,SSW,202,0.0,2.5,94,0.00,,---,0.04,VWS V14.01,2013-06-26 16:56:00,
2013-06-27 03:01:00,57.6,55.8,29.88,West,270,3.1,3.1,94,0.00,,---,0.04,VWS V14.01,2013-06-26 17:01:00,
2013-06-27 03:06:00,57.6,55.8,29.88,NW,315,0.0,0.0,94,0.00,,---,0.04,VWS V14.01,2013-06-26 17:06:00,
2013-06-27 03:11:00,57.4,55.7,29.88,WSW,248,1.6,1.6,94,0.00,,---,0.04,VWS V14.01,2013-06-26 17:11:00,
2013-06-27 03:16:00,57.4,55.7,29.88,West,270,2.2,2.2,94,0.00,,---,0.04,VWS V14.01,2013-06-26 17:16:00,
2013-06-27 03:21:00,57.4,55.7,29.88,West,270,1.1,1.1,94,0.00,,---,0.04,VWS V14.01,2013-06-26 17:21:00,
2013-06-27 03:26:00,57.4,55.7,29.88,West,270,2.0,2.9,94,0.00,,---,0.04,VWS V14.01,2013-06-26 17:26:00,
2013-06-27 03:31:00,57.4,55.7,29.88,SSW,202,2.7,2.7,94,0.00,,---,0.04,VWS V14.01,2013-06-26 17:31:00,
2013-06-27 03:36:00,57.2,55.5,29.88,SSW,202,1.3,1.3,94,0.00,,---,0.04,VWS V14.01,2013-06-26 17:36:00,
2013-06-27 03:41:00,57.2,55.5,29.88,SW,225,0.0,0.0,94,0.00,,---,0.04,VWS V14.01,2013-06-26 17:41:00,
2013-06-27 03:46:00,57.2,55.8,29.88,SSE,158,0.0,2.0,95,0.00,,---,0.04,VWS V14.01,2013-06-26 17:46:00,
2013-06-27 03:51:00,57.2,55.8,29.88,SW,225,2.5,2.5,95,0.00,,---,0.04,VWS V14.01,2013-06-26 17:51:00,
2013-06-27 03:56:00,57.0,55.6,29.88,WSW,248,2.2,2.2,95,0.00,,---,0.04,VWS V14.01,2013-06-26 17:56:00,
2013-06-27 04:01:00,57.2,55.8,29.88,WNW,292,3.1,3.1,95,0.00,,---,0.04,VWS V14.01,2013-06-26 18:01:00,
2013-06-27 04:06:00,57.2,55.8,29.88,NW,315,3.4,4.0,95,0.00,,---,0.04,VWS V14.01,2013-06-26 18:06:00,
2013-06-27 04:11:00,57.2,55.8,29.88,NW,315,1.6,2.0,95,0.00,,---,0.04,VWS V14.01,2013-06-26 18:11:00,
2013-06-27 04:16:00,57.2,55.8,29.88,West,270,2.5,2.7,95,0.00,,---,0.04,VWS V14.01,2013-06-26 18:16:00,
2013-06-27 04:21:00,57.2,55.8,29.88,NE,45,1.1,1.6,95,0.00,,---,0.04,VWS V14.01,2013-06-26 18:21:00,
2013-06-27 04:26:00,57.2,55.8,29.88,North,0,2.7,2.9,95,0.00,,---,0.04,VWS V14.01,2013-06-26 18:26:00,
2013-06-27 04:31:00,57.2,55.8,29.88,West,270,3.4,3.4,95,0.00,,---,0.04,VWS V14.01,2013-06-26 18:31:00,
2013-06-27 04:36:00,57.2,55.8,29.88,NW,315,2.5,2.5,95,0.04,,---,0.08,VWS V14.01,2013-06-26 18:36:00,
2013-06-27 04:41:00,57.2,55.8,29.88,West,270,2.2,2.2,95,0.04,,---,0.08,VWS V14.01,2013-06-26 18:41:00,
2013-06-27 04:46:00,57.2,55.8,29.88,West,270,0.0,0.0,95,0.04,,---,0.08,VWS V14.01,2013-06-26 18:46:00,
2013-06-27 04:51:00,57.2,55.8,29.88,South,180,0.0,0.0,95,0.09,,---,0.13,VWS V14.01,2013-06-26 18:51:00,
2013-06-27 04:56:00,57.2,55.8,29.88,SSE,158,0.0,0.0,95,0.09,,---,0.13,VWS V14.01,2013-06-26 18:56:00,
2013-06-27 05:01:00,57.2,55.8,29.88,SSE,158,1.3,4.9,95,0.09,,---,0.13,VWS V14.01,2013-06-26 19:01:00,
2013-06-27 05:06:00,57.2,55.8,29.88,SSE,158,0.0,3.1,95,0.09,,---,0.13,VWS V14.01,2013-06-26 19:06:00,
2013-06-27 05:11:00,57.2,55.8,29.88,ESE,112,2.0,2.0,95,0.09,,---,0.13,VWS V14.01,2013-06-26 19:11:00,
2013-06-27 05:16:00,57.2,55.8,29.88,SE,135,0.0,0.0,95,0.09,,---,0.13,VWS V14.01,2013-06-26 19:16:00,
2013-06-27 05:21:00,57.2,56.1,29.88,NE,45,1.1,5.8,96,0.09,,---,0.13,VWS V14.01,2013-06-26 19:21:00,
2013-06-27 05:26:00,57.2,56.4,29.88,NE,45,0.0,3.4,97,0.09,,---,0.13,VWS V14.01,2013-06-26 19:26:00,
2013-06-27 05:31:00,57.2,56.4,29.88,ESE,112,0.0,0.0,97,0.09,,---,0.13,VWS V14.01,2013-06-26 19:31:00,
2013-06-27 05:36:00,57.4,56.8,29.88,SE,135,0.0,0.0,98,0.09,,---,0.13,VWS V14.01,2013-06-26 19:36:00,
2013-06-27 05:41:00,57.4,56.8,29.88,ESE,112,0.0,0.0,98,0.05,,---,0.13,VWS V14.01,2013-06-26 19:41:00,
2013-06-27 05:46:00,57.6,57.0,29.88,ESE,112,1.1,1.1,98,0.05,,---,0.13,VWS V14.01,2013-06-26 19:46:00,
2013-06-27 05:51:00,57.6,57.0,29.88,ENE,68,0.0,0.0,98,0.00,,---,0.13,VWS V14.01,2013-06-26 19:51:00,
2013-06-27 05:56:00,57.6,57.0,29.91,East,90,0.0,0.0,98,0.00,,---,0.13,VWS V14.01,2013-06-26 19:56:00,
2013-06-27 06:01:00,57.7,57.2,29.91,East,90,0.0,1.3,98,0.00,,---,0.13,VWS V14.01,2013-06-26 20:01:00,
2013-06-27 06:06:00,57.7,57.2,29.91,East,90,2.2,2.2,98,0.00,,---,0.13,VWS V14.01,2013-06-26 20:06:00,
2013-06-27 06:11:00,57.7,57.2,29.91,SE,135,0.9,1.3,98,0.00,,---,0.13,VWS V14.01,2013-06-26 20:11:00,
2013-06-27 06:16:00,57.7,57.2,29.91,East,90,0.0,1.6,98,0.00,,---,0.13,VWS V14.01,2013-06-26 20:16:00,
2013-06-27 06:21:00,57.6,57.0,29.91,ENE,68,0.0,0.0,98,0.00,,---,0.13,VWS V14.01,2013-06-26 20:21:00,
2013-06-27 06:26:00,57.6,57.0,29.91,ENE,68,0.0,1.1,98,0.00,,---,0.13,VWS V14.01,2013-06-26 20:26:00,
2013-06-27 06:31:00,57.6,57.0,29.91,East,90,2.5,2.5,98,0.04,,---,0.17,VWS V14.01,2013-06-26 20:31:00,
2013-06-27 06:36:00,57.6,57.0,29.91,East,90,0.0,0.0,98,0.04,,---,0.17,VWS V14.01,2013-06-26 20:36:00,
2013-06-27 06:41:00,57.6,57.0,29.91,East,90,0.0,0.0,98,0.04,,---,0.17,VWS V14.01,2013-06-26 20:41:00,
2013-06-27 06:46:00,57.6,57.0,29.91,East,90,0.0,0.0,98,0.04,,---,0.17,VWS V14.01,2013-06-26 20:46:00,
2013-06-27 06:51:00,57.6,57.0,29.91,ESE,112,0.0,0.0,98,0.04,,---,0.17,VWS V14.01,2013-06-26 20:51:00,
2013-06-27 06:56:00,57.6,57.0,29.91,ESE,112,2.5,2.5,98,0.04,,---,0.17,VWS V14.01,2013-06-26 20:56:00,
2013-06-27 07:01:00,57.6,57.0,29.91,SSW,202,1.3,1.3,98,0.12,,---,0.25,VWS V14.01,2013-06-26 21:01:00,
2013-06-27 07:06:00,57.7,57.2,29.91,SSE,158,3.6,3.6,98,0.16,,---,0.29,VWS V14.01,2013-06-26 21:06:00,
2013-06-27 07:11:00,57.7,57.2,29.91,SE,135,2.2,3.1,98,0.16,,---,0.29,VWS V14.01,2013-06-26 21:11:00,
2013-06-27 07:16:00,57.9,57.4,29.91,SE,135,0.0,0.0,98,0.16,,---,0.29,VWS V14.01,2013-06-26 21:16:00,
2013-06-27 07:21:00,57.9,57.4,29.91,East,90,0.0,0.0,98,0.16,,---,0.29,VWS V14.01,2013-06-26 21:21:00,
2013-06-27 07:26:00,57.9,57.4,29.91,East,90,0.0,3.4,98,0.16,,---,0.29,VWS V14.01,2013-06-26 21:26:00,
2013-06-27 07:31:00,57.9,57.4,29.91,ENE,68,0.0,0.0,98,0.16,,---,0.33,VWS V14.01,2013-06-26 21:31:00,
2013-06-27 07:36:00,58.1,57.5,29.91,SSE,158,0.0,0.0,98,0.16,,---,0.33,VWS V14.01,2013-06-26 21:36:00,
2013-06-27 07:41:00,58.1,57.5,29.91,East,90,3.4,3.4,98,0.16,,---,0.33,VWS V14.01,2013-06-26 21:41:00,
2013-06-27 07:46:00,58.3,57.7,29.91,East,90,0.0,0.0,98,0.21,,---,0.38,VWS V14.01,2013-06-26 21:46:00,
2013-06-27 07:51:00,58.3,57.7,29.91,ESE,112,3.1,3.1,98,0.21,,---,0.38,VWS V14.01,2013-06-26 21:51:00,
2013-06-27 07:56:00,58.1,57.5,29.91,ESE,112,4.3,4.3,98,0.21,,---,0.38,VWS V14.01,2013-06-26 21:56:00,
2013-06-27 08:01:00,58.1,57.5,29.91,East,90,0.0,0.0,98,0.17,,---,0.42,VWS V14.01,2013-06-26 22:01:00,
2013-06-27 08:06:00,58.1,57.5,29.91,East,90,0.0,0.0,98,0.13,,---,0.42,VWS V14.01,2013-06-26 22:06:00,
2013-06-27 08:11:00,58.1,57.5,29.91,SE,135,0.9,3.8,98,0.13,,---,0.42,VWS V14.01,2013-06-26 22:11:00,
2013-06-27 08:16:00,58.3,57.7,29.91,East,90,2.0,2.0,98,0.13,,---,0.42,VWS V14.01,2013-06-26 22:16:00,
2013-06-27 08:21:00,58.5,57.9,29.91,ESE,112,4.9,4.9,98,0.13,,---,0.42,VWS V14.01,2013-06-26 22:21:00,
2013-06-27 08:26:00,58.5,57.9,29.91,East,90,0.0,0.0,98,0.13,,---,0.42,VWS V14.01,2013-06-26 22:26:00,
2013-06-27 08:31:00,58.6,58.1,29.91,ESE,112,0.0,0.0,98,0.13,,---,0.46,VWS V14.01,2013-06-26 22:31:00,
2013-06-27 08:36:00,58.6,58.1,29.91,East,90,0.0,0.0,98,0.13,,---,0.46,VWS V14.01,2013-06-26 22:36:00,
2013-06-27 08:41:00,58.6,58.1,29.91,East,90,0.0,0.0,98,0.13,,---,0.46,VWS V14.01,2013-06-26 22:41:00,
2013-06-27 08:45:00,58.6,58.1,29.91,SE,135,2.9,2.9,98,0.12,,---,0.50,VWS V14.01,2013-06-26 22:45:00,
2013-06-27 08:46:00,58.6,58.1,29.91,East,90,4.0,4.0,98,0.12,,---,0.50,VWS V14.01,2013-06-26 22:46:00,
2013-06-27 08:47:00,58.6,58.1,29.91,ENE,68,5.8,5.8,98,0.16,,---,0.54,VWS V14.01,2013-06-26 22:47:00,
2013-06-27 08:57:00,58.6,58.1,29.91,East,90,1.6,1.6,98,0.12,,---,0.54,VWS V14.01,2013-06-26 22:57:00,
2013-06-27 09:02:00,58.5,57.9,29.91,East,90,1.6,1.6,98,0.16,,---,0.58,VWS V14.01,2013-06-26 23:02:00,
2013-06-27 09:07:00,58.5,57.9,29.91,ESE,112,2.2,2.2,98,0.20,,---,0.62,VWS V14.01,2013-06-26 23:07:00,
2013-06-27 09:12:00,58.5,57.9,29.94,SE,135,8.7,8.7,98,0.29,,---,0.71,VWS V14.01,2013-06-26 23:12:00,
2013-06-27 09:17:00,58.5,57.9,29.94,East,90,0.0,0.9,98,0.33,,---,0.75,VWS V14.01,2013-06-26 23:17:00,
2013-06-27 09:22:00,58.5,57.9,29.94,East,90,2.9,2.9,98,0.41,,---,0.83,VWS V14.01,2013-06-26 23:22:00,
2013-06-27 09:27:00,58.5,57.9,29.94,NNE,22,1.3,1.3,98,0.53,,---,0.95,VWS V14.01,2013-06-26 23:27:00,
2013-06-27 09:32:00,58.5,57.9,29.94,South,180,0.9,0.9,98,0.54,,---,1.00,VWS V14.01,2013-06-26 23:32:00,
2013-06-27 09:37:00,58.5,57.9,29.94,ESE,112,1.1,1.1,98,0.58,,---,1.04,VWS V14.01,2013-06-26 23:37:00,
2013-06-27 09:42:00,58.3,57.7,29.94,East,90,0.0,0.0,98,0.62,,---,1.08,VWS V14.01,2013-06-26 23:42:00,
2013-06-27 09:47:00,58.3,57.7,29.94,SE,135,2.5,2.5,98,0.58,,---,1.12,VWS V14.01,2013-06-26 23:47:00,
2013-06-27 09:52:00,58.3,57.7,29.94,NW,315,1.1,1.1,98,0.58,,---,1.12,VWS V14.01,2013-06-26 23:52:00,
2013-06-27 09:57:00,58.3,57.7,29.94,West,270,2.0,2.0,98,0.62,,---,1.16,VWS V14.01,2013-06-26 23:57:00,
2013-06-27 10:02:00,58.3,57.7,29.94,NNE,22,2.5,2.5,98,0.58,,---,1.16,VWS V14.01,2013-06-27 00:02:00,
2013-06-27 10:07:00,58.3,57.7,29.94,WNW,292,3.1,3.1,98,0.54,,---,1.16,VWS V14.01,2013-06-27 00:07:00,
2013-06-27 10:12:00,58.5,57.9,29.94,NW,315,2.7,3.1,98,0.49,,---,1.20,VWS V14.01,2013-06-27 00:12:00,
2013-06-27 10:17:00,58.5,57.9,29.94,NNE,22,2.5,2.5,98,0.45,,---,1.20,VWS V14.01,2013-06-27 00:17:00,
2013-06-27 10:22:00,58.5,57.9,29.94,NNW,338,3.6,3.6,98,0.37,,---,1.20,VWS V14.01,2013-06-27 00:22:00,
2013-06-27 10:27:00,58.5,57.9,29.94,ESE,112,0.0,0.0,98,0.25,,---,1.20,VWS V14.01,2013-06-27 00:27:00,
2013-06-27 10:32:00,58.5,57.9,29.94,NW,315,1.1,2.9,98,0.20,,---,1.20,VWS V14.01,2013-06-27 00:32:00,
2013-06-27 10:37:00,58.6,58.1,29.94,South,180,0.0,0.0,98,0.16,,---,1.20,VWS V14.01,2013-06-27 00:37:00,
2013-06-27 10:42:00,58.8,58.3,29.91,SW,225,2.7,2.7,98,0.12,,---,1.20,VWS V14.01,2013-06-27 00:42:00,
2013-06-27 10:47:00,59.0,58.4,29.91,SSW,202,0.0,0.0,98,0.08,,---,1.20,VWS V14.01,2013-06-27 00:47:00,
2013-06-27 10:52:00,59.0,58.4,29.91,SSW,202,3.1,3.1,98,0.08,,---,1.20,VWS V14.01,2013-06-27 00:52:00,
2013-06-27 10:57:00,59.2,58.6,29.91,SSW,202,2.5,3.1,98,0.04,,---,1.20,VWS V14.01,2013-06-27 00:57:00,
2013-06-27 11:02:00,59.2,58.6,29.91,SSE,158,0.9,0.9,98,0.04,,---,1.20,VWS V14.01,2013-06-27 01:02:00,
2013-06-27 11:07:00,59.2,58.6,29.91,SW,225,2.5,2.5,98,0.04,,---,1.20,VWS V14.01,2013-06-27 01:07:00,
2013-06-27 11:12:00,59.4,58.8,29.91,SW,225,2.7,2.7,98,0.00,,---,1.20,VWS V14.01,2013-06-27 01:12:00,
2013-06-27 11:17:00,59.4,58.8,29.91,South,180,0.0,0.0,98,0.00,,---,1.20,VWS V14.01,2013-06-27 01:17:00,
2013-06-27 11:22:00,59.4,58.8,29.91,West,270,1.1,1.6,98,0.00,,---,1.20,VWS V14.01,2013-06-27 01:22:00,
2013-06-27 11:27:00,59.5,59.0,29.91,NW,315,2.5,2.5,98,0.00,,---,1.20,VWS V14.01,2013-06-27 01:27:00,
2013-06-27 11:32:00,59.7,59.2,29.91,WNW,292,2.9,2.9,98,0.00,,---,1.20,VWS V14.01,2013-06-27 01:32:00,
2013-06-27 11:37:00,59.7,59.2,29.91,WSW,248,2.5,2.9,98,0.00,,---,1.20,VWS V14.01,2013-06-27 01:37:00,
2013-06-27 11:42:00,59.9,59.3,29.91,SW,225,3.4,3.4,98,0.00,,---,1.20,VWS V14.01,2013-06-27 01:42:00,
2013-06-27 11:47:00,59.7,59.2,29.91,WSW,248,2.7,2.7,98,0.00,,---,1.20,VWS V14.01,2013-06-27 01:47:00,
2013-06-27 11:52:00,59.7,59.2,29.91,NW,315,2.7,4.3,98,0.00,,---,1.20,VWS V14.01,2013-06-27 01:52:00,
2013-06-27 11:57:00,59.7,59.2,29.91,NW,315,4.3,4.5,98,0.00,,---,1.20,VWS V14.01,2013-06-27 01:57:00,
2013-06-27 12:02:00,59.7,59.2,29.91,West,270,3.6,3.6,98,0.00,,---,1.20,VWS V14.01,2013-06-27 02:02:00,
2013-06-27 12:07:00,59.7,59.2,29.91,West,270,4.0,4.0,98,0.00,,---,1.20,VWS V14.01,2013-06-27 02:07:00,
2013-06-27 12:12:00,59.7,59.2,29.91,NW,315,0.0,0.0,98,0.00,,---,1.20,VWS V14.01,2013-06-27 02:12:00,
2013-06-27 12:17:00,59.7,59.2,29.91,SSW,202,3.1,3.1,98,0.00,,---,1.20,VWS V14.01,2013-06-27 02:17:00,
2013-06-27 12:22:00,59.7,59.2,29.91,West,270,1.3,3.1,98,0.00,,---,1.20,VWS V14.01,2013-06-27 02:22:00,
2013-06-27 12:27:00,59.7,59.2,29.91,West,270,3.8,3.8,98,0.00,,---,1.20,VWS V14.01,2013-06-27 02:27:00,
2013-06-27 12:32:00,59.9,59.3,29.91,West,270,3.6,3.6,98,0.00,,---,1.20,VWS V14.01,2013-06-27 02:32:00,
2013-06-27 12:37:00,59.9,59.3,29.91,WNW,292,3.1,3.1,98,0.00,,---,1.20,VWS V14.01,2013-06-27 02:37:00,
2013-06-27 12:42:00,59.9,59.3,29.88,NW,315,4.7,4.7,98,0.00,,---,1.20,VWS V14.01,2013-06-27 02:42:00,
2013-06-27 12:47:00,59.9,59.3,29.88,NW,315,1.6,1.6,98,0.00,,---,1.20,VWS V14.01,2013-06-27 02:47:00,
2013-06-27 12:52:00,59.9,59.3,29.88,NW,315,2.7,3.1,98,0.00,,---,1.20,VWS V14.01,2013-06-27 02:52:00,
2013-06-27 12:57:00,60.1,59.5,29.88,WNW,292,1.6,2.5,98,0.05,,---,1.25,VWS V14.01,2013-06-27 02:57:00,
2013-06-27 13:02:00,60.1,59.5,29.88,NW,315,0.0,0.0,98,0.05,,---,1.25,VWS V14.01,2013-06-27 03:02:00,
2013-06-27 13:07:00,60.1,59.5,29.88,NW,315,2.2,2.2,98,0.05,,---,1.25,VWS V14.01,2013-06-27 03:07:00,
2013-06-27 13:12:00,60.3,59.7,29.88,WNW,292,2.0,2.9,98,0.05,,---,1.25,VWS V14.01,2013-06-27 03:12:00,
2013-06-27 13:17:00,60.3,59.7,29.88,North,0,2.5,2.5,98,0.05,,---,1.25,VWS V14.01,2013-06-27 03:17:00,
2013-06-27 13:22:00,60.3,59.7,29.88,WNW,292,2.2,2.2,98,0.05,,---,1.25,VWS V14.01,2013-06-27 03:22:00,
2013-06-27 13:27:00,60.3,59.7,29.88,SW,225,1.3,1.3,98,0.05,,---,1.25,VWS V14.01,2013-06-27 03:27:00,
2013-06-27 13:32:00,60.4,59.9,29.88,West,270,1.6,2.5,98,0.05,,---,1.25,VWS V14.01,2013-06-27 03:32:00,
2013-06-27 13:37:00,60.4,59.9,29.88,SSW,202,1.3,1.3,98,0.05,,---,1.25,VWS V14.01,2013-06-27 03:37:00,
2013-06-27 13:42:00,60.4,59.9,29.88,SW,225,0.9,0.9,98,0.05,,---,1.25,VWS V14.01,2013-06-27 03:42:00,
2013-06-27 13:47:00,60.4,59.9,29.88,WNW,292,0.0,0.0,98,0.05,,---,1.25,VWS V14.01,2013-06-27 03:47:00,
2013-06-27 13:52:00,60.3,59.7,29.88,NW,315,3.1,3.1,98,0.05,,---,1.25,VWS V14.01,2013-06-27 03:52:00,
2013-06-27 13:57:00,60.3,59.7,29.88,SW,225,0.0,1.3,98,0.00,,---,1.25,VWS V14.01,2013-06-27 03:57:00,
2013-06-27 14:01:00,60.3,59.7,29.88,WSW,248,0.0,1.1,98,0.00,,---,1.25,VWS V14.01,2013-06-27 04:01:00,
2013-06-27 14:02:00,60.3,59.7,29.88,WSW,248,0.0,0.0,98,0.00,,---,1.25,VWS V14.01,2013-06-27 04:02:00,
2013-06-27 14:07:00,60.1,59.5,29.88,West,270,1.6,1.6,98,0.00,,---,1.25,VWS V14.01,2013-06-27 04:07:00,
2013-06-27 14:12:00,60.1,59.5,29.88,NW,315,2.7,2.7,98,0.04,,---,1.29,VWS V14.01,2013-06-27 04:12:00,
2013-06-27 14:17:00,60.1,59.5,29.88,NW,315,3.1,3.1,98,0.04,,---,1.29,VWS V14.01,2013-06-27 04:17:00,
2013-06-27 14:22:00,59.9,59.3,29.88,NW,315,2.9,2.9,98,0.04,,---,1.29,VWS V14.01,2013-06-27 04:22:00,
2013-06-27 14:27:00,59.9,59.3,29.88,NW,315,2.5,2.5,98,0.04,,---,1.29,VWS V14.01,2013-06-27 04:27:00,
2013-06-27 14:32:00,59.9,59.3,29.88,North,0,0.0,0.0,98,0.04,,---,1.29,VWS V14.01,2013-06-27 04:32:00,
2013-06-27 14:37:00,59.9,59.3,29.88,WNW,292,1.6,1.6,98,0.04,,---,1.29,VWS V14.01,2013-06-27 04:37:00,
2013-06-27 14:42:00,59.9,59.3,29.88,NW,315,2.5,2.5,98,0.04,,---,1.29,VWS V14.01,2013-06-27 04:42:00,
2013-06-27 14:47:00,59.9,59.3,29.88,WNW,292,0.0,0.0,98,0.04,,---,1.29,VWS V14.01,2013-06-27 04:47:00,
2013-06-27 14:52:00,59.9,59.3,29.88,NW,315,1.3,1.3,98,0.04,,---,1.29,VWS V14.01,2013-06-27 04:52:00,
2013-06-27 14:57:00,59.9,59.3,29.88,West,270,0.0,0.0,98,0.04,,---,1.29,VWS V14.01,2013-06-27 04:57:00,
2013-06-27 15:02:00,59.9,59.3,29.88,SSE,158,0.0,0.0,98,0.04,,---,1.29,VWS V14.01,2013-06-27 05:02:00,
2013-06-27 15:07:00,59.9,59.3,29.88,South,180,0.0,0.0,98,0.04,,---,1.29,VWS V14.01,2013-06-27 05:07:00,
2013-06-27 15:12:00,59.9,59.3,29.88,South,180,0.0,0.0,98,0.00,,---,1.29,VWS V14.01,2013-06-27 05:12:00,
2013-06-27 15:17:00,59.9,59.3,29.88,NW,315,2.2,2.2,98,0.00,,---,1.29,VWS V14.01,2013-06-27 05:17:00,
2013-06-27 15:22:00,59.7,59.2,29.88,West,270,0.0,0.9,98,0.00,,---,1.29,VWS V14.01,2013-06-27 05:22:00,
2013-06-27 15:27:00,59.7,59.2,29.88,SW,225,0.0,0.0,98,0.00,,---,1.29,VWS V14.01,2013-06-27 05:27:00,
2013-06-27 15:32:00,59.7,59.2,29.88,SE,135,0.9,0.9,98,0.00,,---,1.29,VWS V14.01,2013-06-27 05:32:00,
2013-06-27 15:37:00,59.7,59.2,29.88,SW,225,0.0,0.0,98,0.00,,---,1.29,VWS V14.01,2013-06-27 05:37:00,
2013-06-27 15:42:00,59.7,59.2,29.88,West,270,2.0,2.0,98,0.00,,---,1.29,VWS V14.01,2013-06-27 05:42:00,
2013-06-27 15:47:00,59.7,59.2,29.88,NW,315,2.9,2.9,98,0.00,,---,1.29,VWS V14.01,2013-06-27 05:47:00,
2013-06-27 15:52:00,59.7,59.2,29.88,NW,315,3.1,3.1,98,0.00,,---,1.29,VWS V14.01,2013-06-27 05:52:00,
2013-06-27 15:57:00,59.7,59.2,29.88,NW,315,4.9,4.9,98,0.00,,---,1.29,VWS V14.01,2013-06-27 05:57:00,
2013-06-27 16:02:00,59.7,59.2,29.88,WSW,248,1.6,1.6,98,0.00,,---,1.29,VWS V14.01,2013-06-27 06:02:00,
2013-06-27 16:07:00,59.5,59.0,29.88,ESE,112,0.0,0.0,98,0.00,,---,1.29,VWS V14.01,2013-06-27 06:07:00,
2013-06-27 16:12:00,59.5,59.0,29.88,East,90,0.0,0.0,98,0.00,,---,1.29,VWS V14.01,2013-06-27 06:12:00,
2013-06-27 16:17:00,59.5,59.0,29.88,East,90,0.0,0.0,98,0.00,,---,1.29,VWS V14.01,2013-06-27 06:17:00,
2013-06-27 16:22:00,59.5,59.0,29.88,NNW,338,0.0,0.0,98,0.00,,---,1.29,VWS V14.01,2013-06-27 06:22:00,
2013-06-27 16:27:00,59.5,59.0,29.88,NNW,338,0.0,0.0,98,0.00,,---,1.29,VWS V14.01,2013-06-27 06:27:00,
2013-06-27 16:32:00,59.4,58.8,29.88,NNW,338,0.0,0.0,98,0.00,,---,1.29,VWS V14.01,2013-06-27 06:32:00,
2013-06-27 16:37:00,59.4,58.8,29.88,NNW,338,0.0,0.0,98,0.00,,---,1.29,VWS V14.01,2013-06-27 06:37:00,
2013-06-27 16:42:00,59.4,58.8,29.88,NNW,338,0.0,0.0,98,0.00,,---,1.29,VWS V14.01,2013-06-27 06:42:00,
2013-06-27 16:47:00,59.4,58.8,29.88,South,180,0.0,0.0,98,0.00,,---,1.29,VWS V14.01,2013-06-27 06:47:00,
2013-06-27 16:52:00,59.4,58.8,29.88,West,270,0.0,0.0,98,0.00,,---,1.29,VWS V14.01,2013-06-27 06:52:00,
2013-06-27 16:57:00,59.2,58.6,29.88,SSE,158,0.0,0.0,98,0.00,,---,1.29,VWS V14.01,2013-06-27 06:57:00,
2013-06-27 17:02:00,59.2,58.6,29.88,SSE,158,0.0,0.0,98,0.00,,---,1.29,VWS V14.01,2013-06-27 07:02:00,
2013-06-27 17:07:00,59.2,58.6,29.88,SSE,158,0.0,0.0,98,0.00,,---,1.29,VWS V14.01,2013-06-27 07:07:00,
2013-06-27 17:12:00,59.0,58.4,29.91,SSE,158,0.0,0.0,98,0.00,,---,1.29,VWS V14.01,2013-06-27 07:12:00,
2013-06-27 17:17:00,59.0,58.4,29.91,SSE,158,0.0,0.0,98,0.00,,---,1.29,VWS V14.01,2013-06-27 07:17:00,
2013-06-27 17:22:00,59.0,58.4,29.91,South,180,0.0,0.0,98,0.00,,---,1.29,VWS V14.01,2013-06-27 07:22:00,
2013-06-27 17:27:00,59.0,58.4,29.91,SSE,158,0.0,0.0,98,0.00,,---,1.29,VWS V14.01,2013-06-27 07:27:00,
2013-06-27 17:32:00,58.8,58.3,29.91,SSE,158,0.0,0.0,98,0.00,,---,1.29,VWS V14.01,2013-06-27 07:32:00,
2013-06-27 17:37:00,58.8,58.3,29.91,SSE,158,0.0,0.0,98,0.00,,---,1.29,VWS V14.01,2013-06-27 07:37:00,
2013-06-27 17:42:00,58.6,58.1,29.91,SE,135,2.0,2.0,98,0.00,,---,1.29,VWS V14.01,2013-06-27 07:42:00,
2013-06-27 17:47:00,58.6,58.1,29.91,SE,135,0.9,0.9,98,0.00,,---,1.29,VWS V14.01,2013-06-27 07:47:00,
2013-06-27 17:52:00,58.6,58.1,29.91,NNE,22,4.3,4.3,98,0.00,,---,1.29,VWS V14.01,2013-06-27 07:52:00,
2013-06-27 17:57:00,58.6,58.1,29.91,North,0,0.0,2.7,98,0.00,,---,1.29,VWS V14.01,2013-06-27 07:57:00,
2013-06-27 18:02:00,58.5,57.9,29.91,NNW,338,3.4,3.4,98,0.00,,---,1.29,VWS V14.01,2013-06-27 08:02:00,
2013-06-27 18:07:00,58.5,57.9,29.91,NW,315,1.3,1.3,98,0.00,,---,1.29,VWS V14.01,2013-06-27 08:07:00,
2013-06-27 18:12:00,58.5,57.9,29.91,West,270,0.0,0.0,98,0.00,,---,1.29,VWS V14.01,2013-06-27 08:12:00,
2013-06-27 18:17:00,58.3,57.7,29.91,SW,225,0.0,0.0,98,0.00,,---,1.29,VWS V14.01,2013-06-27 08:17:00,
2013-06-27 18:22:00,58.3,57.7,29.91,ESE,112,0.0,0.0,98,0.00,,---,1.29,VWS V14.01,2013-06-27 08:22:00,
2013-06-27 18:27:00,58.1,57.5,29.91,East,90,0.0,0.0,98,0.00,,---,1.29,VWS V14.01,2013-06-27 08:27:00,
2013-06-27 18:32:00,58.1,57.5,29.91,East,90,0.0,0.0,98,0.00,,---,1.29,VWS V14.01,2013-06-27 08:32:00,
2013-06-27 18:37:00,58.1,57.5,29.91,East,90,0.0,0.0,98,0.00,,---,1.29,VWS V14.01,2013-06-27 08:37:00,
2013-06-27 18:42:00,57.9,57.4,29.91,NW,315,0.9,0.9,98,0.00,,---,1.29,VWS V14.01,2013-06-27 08:42:00,
2013-06-27 18:47:00,57.9,57.4,29.91,NE,45,0.0,0.0,98,0.00,,---,1.29,VWS V14.01,2013-06-27 08:47:00,
2013-06-27 18:52:00,57.9,57.4,29.91,North,0,0.0,1.1,98,0.00,,---,1.29,VWS V14.01,2013-06-27 08:52:00,
2013-06-27 18:57:00,57.9,57.4,29.91,NW,315,0.0,0.0,98,0.00,,---,1.29,VWS V14.01,2013-06-27 08:57:00,
2013-06-27 19:02:00,57.9,57.4,29.91,WNW,292,0.0,0.0,98,0.00,,---,1.29,VWS V14.01,2013-06-27 09:02:00,
2013-06-27 19:07:00,57.9,57.4,29.91,WNW,292,0.0,0.0,98,0.00,,---,1.29,VWS V14.01,2013-06-27 09:07:00,
2013-06-27 19:12:00,57.9,57.4,29.91,WNW,292,0.0,0.0,98,0.00,,---,1.29,VWS V14.01,2013-06-27 09:12:00,
2013-06-27 19:17:00,57.9,57.1,29.91,WNW,292,1.3,1.3,97,0.00,,---,1.29,VWS V14.01,2013-06-27 09:17:00,
2013-06-27 19:22:00,57.9,57.1,29.91,North,0,0.0,0.0,97,0.00,,---,1.29,VWS V14.01,2013-06-27 09:22:00,
2013-06-27 19:27:00,57.9,57.1,29.91,NNW,338,0.0,0.0,97,0.00,,---,1.29,VWS V14.01,2013-06-27 09:27:00,
2013-06-27 19:32:00,57.9,57.1,29.91,West,270,0.0,0.0,97,0.00,,---,1.29,VWS V14.01,2013-06-27 09:32:00,
2013-06-27 19:37:00,57.9,57.1,29.91,NW,315,0.0,0.0,97,0.00,,---,1.29,VWS V14.01,2013-06-27 09:37:00,
2013-06-27 19:42:00,57.9,57.1,29.91,South,180,0.0,0.0,97,0.00,,---,1.29,VWS V14.01,2013-06-27 09:42:00,
2013-06-27 19:47:00,57.7,56.9,29.91,ESE,112,0.0,0.0,97,0.00,,---,1.29,VWS V14.01,2013-06-27 09:47:00,
2013-06-27 19:52:00,57.7,56.9,29.91,ENE,68,0.0,0.0,97,0.00,,---,1.29,VWS V14.01,2013-06-27 09:52:00,
2013-06-27 19:57:00,57.7,56.9,29.91,NW,315,0.0,0.0,97,0.00,,---,1.29,VWS V14.01,2013-06-27 09:57:00,
2013-06-27 20:02:00,57.7,56.9,29.91,East,90,0.0,0.0,97,0.00,,---,1.29,VWS V14.01,2013-06-27 10:02:00,
2013-06-27 20:07:00,57.7,56.9,29.91,WSW,248,0.0,0.0,97,0.00,,---,1.29,VWS V14.01,2013-06-27 10:07:00,
2013-06-27 20:12:00,57.7,56.9,29.91,WSW,248,0.0,0.0,97,0.00,,---,1.29,VWS V14.01,2013-06-27 10:12:00,
2013-06-27 20:17:00,57.7,56.9,29.91,South,180,0.0,0.0,97,0.00,,---,1.29,VWS V14.01,2013-06-27 10:17:00,
2013-06-27 20:22:00,57.6,56.7,29.91,East,90,0.0,0.0,97,0.00,,---,1.29,VWS V14.01,2013-06-27 10:22:00,
2013-06-27 20:27:00,57.6,56.7,29.91,East,90,0.0,0.0,97,0.00,,---,1.29,VWS V14.01,2013-06-27 10:27:00,
2013-06-27 20:32:00,57.6,56.7,29.91,East,90,0.0,0.0,97,0.00,,---,1.29,VWS V14.01,2013-06-27 10:32:00,
2013-06-27 20:37:00,57.6,56.7,29.91,East,90,0.0,0.0,97,0.00,,---,1.29,VWS V14.01,2013-06-27 10:37:00,
2013-06-27 20:42:00,57.6,56.7,29.91,NE,45,0.0,0.0,97,0.00,,---,1.29,VWS V14.01,2013-06-27 10:42:00,
2013-06-27 20:47:00,57.6,56.7,29.91,NE,45,0.0,0.0,97,0.00,,---,1.29,VWS V14.01,2013-06-27 10:47:00,
2013-06-27 20:52:00,57.6,56.7,29.91,NE,45,0.0,0.0,97,0.00,,---,1.29,VWS V14.01,2013-06-27 10:52:00,
2013-06-27 20:57:00,57.6,56.7,29.91,NE,45,0.0,0.0,97,0.00,,---,1.29,VWS V14.01,2013-06-27 10:57:00,
2013-06-27 21:02:00,57.4,56.5,29.91,NE,45,0.0,0.0,97,0.00,,---,1.29,VWS V14.01,2013-06-27 11:02:00,
2013-06-27 21:07:00,57.4,56.5,29.91,East,90,0.0,0.0,97,0.00,,---,1.29,VWS V14.01,2013-06-27 11:07:00,
2013-06-27 21:12:00,57.4,56.5,29.91,WNW,292,0.0,0.0,97,0.00,,---,1.29,VWS V14.01,2013-06-27 11:12:00,
2013-06-27 21:17:00,57.2,56.4,29.91,NW,315,0.0,0.0,97,0.00,,---,1.29,VWS V14.01,2013-06-27 11:17:00,
2013-06-27 21:22:00,57.2,56.4,29.91,SSW,202,0.0,0.0,97,0.00,,---,1.29,VWS V14.01,2013-06-27 11:22:00,
2013-06-27 21:27:00,57.4,56.5,29.91,East,90,0.0,0.0,97,0.00,,---,1.29,VWS V14.01,2013-06-27 11:27:00,
2013-06-27 21:32:00,57.4,56.5,29.91,WNW,292,0.0,0.0,97,0.00,,---,1.29,VWS V14.01,2013-06-27 11:32:00,
2013-06-27 21:37:00,57.4,56.5,29.91,North,0,4.3,4.3,97,0.00,,---,1.29,VWS V14.01,2013-06-27 11:37:00,
2013-06-27 21:42:00,57.4,56.5,29.91,NW,315,2.5,2.5,97,0.04,,---,1.33,VWS V14.01,2013-06-27 11:42:00,
2013-06-27 21:47:00,57.4,56.5,29.91,SSE,158,2.5,2.5,97,0.16,,---,1.45,VWS V14.01,2013-06-27 11:47:00,
2013-06-27 21:52:00,57.4,56.5,29.91,East,90,0.0,1.6,97,0.16,,---,1.45,VWS V14.01,2013-06-27 11:52:00,
2013-06-27 21:57:00,57.4,56.5,29.91,WNW,292,0.0,0.0,97,0.33,,---,1.62,VWS V14.01,2013-06-27 11:57:00,
2013-06-27 22:02:00,57.4,56.8,29.91,SE,135,0.0,0.0,98,0.41,,---,1.70,VWS V14.01,2013-06-27 12:02:00,
2013-06-27 22:07:00,57.4,56.8,29.91,ENE,68,1.6,1.6,98,0.58,,---,1.87,VWS V14.01,2013-06-27 12:07:00,
2013-06-27 22:12:00,57.4,56.8,29.91,SW,225,0.0,0.0,98,0.58,,---,1.87,VWS V14.01,2013-06-27 12:12:00,
2013-06-27 22:17:00,57.6,57.0,29.91,South,180,1.6,1.6,98,0.62,,---,1.91,VWS V14.01,2013-06-27 12:17:00,
2013-06-27 22:22:00,57.4,56.8,29.91,ESE,112,0.0,0.0,98,0.66,,---,1.95,VWS V14.01,2013-06-27 12:22:00,
2013-06-27 22:27:00,57.4,56.8,29.91,ESE,112,0.0,0.0,98,0.66,,---,1.95,VWS V14.01,2013-06-27 12:27:00,
2013-06-27 22:32:00,57.4,56.8,29.91,ESE,112,0.0,0.0,98,0.66,,---,1.95,VWS V14.01,2013-06-27 12:32:00,
2013-06-27 22:37:00,57.4,56.8,29.91,SE,135,0.0,0.0,98,0.66,,---,1.95,VWS V14.01,2013-06-27 12:37:00,
2013-06-27 22:42:00,57.4,56.8,29.91,SSW,202,1.3,1.3,98,0.62,,---,1.95,VWS V14.01,2013-06-27 12:42:00,
2013-06-27 22:47:00,57.2,56.6,29.91,South,180,1.1,2.0,98,0.50,,---,1.95,VWS V14.01,2013-06-27 12:47:00,
2013-06-27 22:52:00,57.2,56.6,29.91,SSW,202,1.1,1.1,98,0.50,,---,1.95,VWS V14.01,2013-06-27 12:52:00,
2013-06-27 22:57:00,57.2,56.6,29.91,North,0,0.0,1.6,98,0.33,,---,1.95,VWS V14.01,2013-06-27 12:57:00,
2013-06-27 23:02:00,57.2,56.6,29.91,WNW,292,2.2,2.2,98,0.25,,---,1.95,VWS V14.01,2013-06-27 13:02:00,
2013-06-27 23:07:00,57.2,56.6,29.91,SSE,158,0.0,0.0,98,0.08,,---,1.95,VWS V14.01,2013-06-27 13:07:00,
2013-06-27 23:12:00,57.2,56.6,29.91,SW,225,1.1,1.1,98,0.08,,---,1.95,VWS V14.01,2013-06-27 13:12:00,
2013-06-27 23:17:00,57.2,56.6,29.91,NE,45,0.0,1.3,98,0.04,,---,1.95,VWS V14.01,2013-06-27 13:17:00,
2013-06-27 23:22:00,57.2,56.6,29.91,South,180,2.9,2.9,98,0.00,,---,1.95,VWS V14.01,2013-06-27 13:22:00,
2013-06-27 23:27:00,57.2,56.6,29.91,WSW,248,1.6,1.6,98,0.00,,---,1.95,VWS V14.01,2013-06-27 13:27:00,
2013-06-27 23:32:00,57.2,56.6,29.91,SSW,202,2.0,2.0,98,0.00,,---,1.95,VWS V14.01,2013-06-27 13:32:00,
2013-06-27 23:37:00,57.0,56.5,29.91,NW,315,2.7,2.7,98,0.00,,---,1.95,VWS V14.01,2013-06-27 13:37:00,
2013-06-27 23:42:00,57.0,56.5,29.91,SW,225,0.0,0.0,98,0.00,,---,1.95,VWS V14.01,2013-06-27 13:42:00,
2013-06-27 23:47:00,57.0,56.5,29.91,West,270,0.0,0.0,98,0.00,,---,1.95,VWS V14.01,2013-06-27 13:47:00,
2013-06-27 23:52:00,56.8,56.3,29.91,WNW,292,0.0,0.0,98,0.00,,---,1.95,VWS V14.01,2013-06-27 13:52:00,
2013-06-27 23:57:00,56.8,56.3,29.91,WNW,292,0.0,0.0,98,0.00,,---,1.95,VWS V14.01,2013-06-27 13:57:00,